﻿測定場所 (Monitoring sites),日付 (Measurement date),時間 (Measurement time),線量率 最大値 (max) μGy/h,線量率 最小値 (min) μGy/h,線量率 平均値 (average) μGy/h,
大田 (Ota),2014-11-30,23:01～24:00,0.0533,0.0453,0.0491,
大田 (Ota),2014-11-30,22:01～23:00,0.0481,0.0389,0.0423,
大田 (Ota),2014-11-30,21:01～22:00,0.0449,0.0381,0.0416,
大田 (Ota),2014-11-30,20:01～21:00,0.0435,0.0384,0.0410,
大田 (Ota),2014-11-30,19:01～20:00,0.0439,0.0385,0.0413,
大田 (Ota),2014-11-30,18:01～19:00,0.0433,0.0374,0.0409,
大田 (Ota),2014-11-30,17:01～18:00,0.0443,0.0372,0.0410,
大田 (Ota),2014-11-30,16:01～17:00,0.0436,0.0371,0.0409,
大田 (Ota),2014-11-30,15:01～16:00,0.0433,0.0381,0.0408,
大田 (Ota),2014-11-30,14:01～15:00,0.0439,0.0376,0.0411,
大田 (Ota),2014-11-30,13:01～14:00,0.0442,0.0380,0.0411,
大田 (Ota),2014-11-30,12:01～13:00,0.0450,0.0384,0.0412,
大田 (Ota),2014-11-30,11:01～12:00,0.0449,0.0365,0.0406,
大田 (Ota),2014-11-30,10:01～11:00,0.0435,0.0383,0.0409,
大田 (Ota),2014-11-30,09:01～10:00,0.0447,0.0383,0.0416,
大田 (Ota),2014-11-30,08:01～09:00,0.0453,0.0380,0.0414,
大田 (Ota),2014-11-30,07:01～08:00,0.0442,0.0376,0.0410,
大田 (Ota),2014-11-30,06:01～07:00,0.0457,0.0379,0.0413,
大田 (Ota),2014-11-30,05:01～06:00,0.0437,0.0384,0.0415,
大田 (Ota),2014-11-30,04:01～05:00,0.0447,0.0390,0.0416,
大田 (Ota),2014-11-30,03:01～04:00,0.0449,0.0395,0.0417,
大田 (Ota),2014-11-30,02:01～03:00,0.0449,0.0386,0.0417,
大田 (Ota),2014-11-30,01:01～02:00,0.0437,0.0387,0.0413,
大田 (Ota),2014-11-30,00:01～01:00,0.0439,0.0386,0.0412,
大田 (Ota),2014-11-29,23:01～24:00,0.0449,0.0387,0.0418,
大田 (Ota),2014-11-29,22:01～23:00,0.0459,0.0392,0.0419,
大田 (Ota),2014-11-29,21:01～22:00,0.0442,0.0386,0.0415,
大田 (Ota),2014-11-29,20:01～21:00,0.0453,0.0387,0.0416,
大田 (Ota),2014-11-29,19:01～20:00,0.0441,0.0391,0.0413,
大田 (Ota),2014-11-29,18:01～19:00,0.0443,0.0392,0.0417,
大田 (Ota),2014-11-29,17:01～18:00,0.0458,0.0397,0.0418,
大田 (Ota),2014-11-29,16:01～17:00,0.0446,0.0392,0.0419,
大田 (Ota),2014-11-29,15:01～16:00,0.0475,0.0399,0.0443,
大田 (Ota),2014-11-29,14:01～15:00,0.0595,0.0435,0.0519,
大田 (Ota),2014-11-29,13:01～14:00,0.0660,0.0567,0.0610,
大田 (Ota),2014-11-29,12:01～13:00,0.0668,0.0572,0.0611,
大田 (Ota),2014-11-29,11:01～12:00,0.0609,0.0449,0.0552,
大田 (Ota),2014-11-29,10:01～11:00,0.0495,0.0366,0.0416,
大田 (Ota),2014-11-29,09:01～10:00,0.0444,0.0367,0.0415,
大田 (Ota),2014-11-29,08:01～09:00,0.0444,0.0385,0.0416,
大田 (Ota),2014-11-29,07:01～08:00,0.0447,0.0391,0.0415,
大田 (Ota),2014-11-29,06:01～07:00,0.0442,0.0381,0.0412,
大田 (Ota),2014-11-29,05:01～06:00,0.0456,0.0383,0.0417,
大田 (Ota),2014-11-29,04:01～05:00,0.0446,0.0377,0.0417,
大田 (Ota),2014-11-29,03:01～04:00,0.0447,0.0390,0.0417,
大田 (Ota),2014-11-29,02:01～03:00,0.0457,0.0377,0.0415,
大田 (Ota),2014-11-29,01:01～02:00,0.0448,0.0391,0.0418,
大田 (Ota),2014-11-29,00:01～01:00,0.0459,0.0388,0.0420,
大田 (Ota),2014-11-28,23:01～24:00,0.0438,0.0381,0.0412,
大田 (Ota),2014-11-28,22:01～23:00,0.0450,0.0382,0.0411,
大田 (Ota),2014-11-28,21:01～22:00,0.0439,0.0384,0.0411,
大田 (Ota),2014-11-28,20:01～21:00,0.0443,0.0387,0.0414,
大田 (Ota),2014-11-28,19:01～20:00,0.0441,0.0381,0.0416,
大田 (Ota),2014-11-28,18:01～19:00,0.0447,0.0383,0.0417,
大田 (Ota),2014-11-28,17:01～18:00,0.0451,0.0374,0.0414,
大田 (Ota),2014-11-28,16:01～17:00,0.0450,0.0389,0.0420,
大田 (Ota),2014-11-28,15:01～16:00,0.0443,0.0388,0.0414,
大田 (Ota),2014-11-28,14:01～15:00,0.0442,0.0386,0.0417,
大田 (Ota),2014-11-28,13:01～14:00,0.0456,0.0384,0.0416,
大田 (Ota),2014-11-28,12:01～13:00,0.0449,0.0386,0.0416,
大田 (Ota),2014-11-28,11:01～12:00,0.0448,0.0385,0.0420,
大田 (Ota),2014-11-28,10:01～11:00,0.0454,0.0380,0.0419,
大田 (Ota),2014-11-28,09:01～10:00,0.0450,0.0384,0.0417,
大田 (Ota),2014-11-28,08:01～09:00,0.0450,0.0392,0.0417,
大田 (Ota),2014-11-28,07:01～08:00,0.0450,0.0385,0.0416,
大田 (Ota),2014-11-28,06:01～07:00,0.0448,0.0385,0.0413,
大田 (Ota),2014-11-28,05:01～06:00,0.0444,0.0382,0.0413,
大田 (Ota),2014-11-28,04:01～05:00,0.0440,0.0385,0.0411,
大田 (Ota),2014-11-28,03:01～04:00,0.0448,0.0381,0.0409,
大田 (Ota),2014-11-28,02:01～03:00,0.0449,0.0369,0.0411,
大田 (Ota),2014-11-28,01:01～02:00,0.0444,0.0370,0.0411,
大田 (Ota),2014-11-28,00:01～01:00,0.0467,0.0377,0.0410,
大田 (Ota),2014-11-27,23:01～24:00,0.0443,0.0384,0.0409,
大田 (Ota),2014-11-27,22:01～23:00,0.0460,0.0370,0.0412,
大田 (Ota),2014-11-27,21:01～22:00,0.0443,0.0376,0.0409,
大田 (Ota),2014-11-27,20:01～21:00,0.0447,0.0376,0.0410,
大田 (Ota),2014-11-27,19:01～20:00,0.0444,0.0375,0.0413,
大田 (Ota),2014-11-27,18:01～19:00,0.0448,0.0386,0.0414,
大田 (Ota),2014-11-27,17:01～18:00,0.0445,0.0388,0.0414,
大田 (Ota),2014-11-27,16:01～17:00,0.0445,0.0382,0.0418,
大田 (Ota),2014-11-27,15:01～16:00,0.0451,0.0375,0.0413,
大田 (Ota),2014-11-27,14:01～15:00,0.0442,0.0367,0.0409,
大田 (Ota),2014-11-27,13:01～14:00,0.0452,0.0377,0.0414,
大田 (Ota),2014-11-27,12:01～13:00,0.0445,0.0376,0.0413,
大田 (Ota),2014-11-27,11:01～12:00,0.0453,0.0373,0.0412,
大田 (Ota),2014-11-27,10:01～11:00,0.0441,0.0384,0.0413,
大田 (Ota),2014-11-27,09:01～10:00,0.0439,0.0373,0.0413,
大田 (Ota),2014-11-27,08:01～09:00,0.0451,0.0376,0.0410,
大田 (Ota),2014-11-27,07:01～08:00,0.0441,0.0372,0.0407,
大田 (Ota),2014-11-27,06:01～07:00,0.0437,0.0378,0.0409,
大田 (Ota),2014-11-27,05:01～06:00,0.0436,0.0380,0.0413,
大田 (Ota),2014-11-27,04:01～05:00,0.0460,0.0386,0.0426,
大田 (Ota),2014-11-27,03:01～04:00,0.0504,0.0421,0.0462,
大田 (Ota),2014-11-27,02:01～03:00,0.0592,0.0468,0.0539,
大田 (Ota),2014-11-27,01:01～02:00,0.0613,0.0511,0.0567,
大田 (Ota),2014-11-27,00:01～01:00,0.0521,0.0432,0.0471,
大田 (Ota),2014-11-26,23:01～24:00,0.0515,0.0421,0.0472,
大田 (Ota),2014-11-26,22:01～23:00,0.0479,0.0403,0.0440,
大田 (Ota),2014-11-26,21:01～22:00,0.0505,0.0431,0.0464,
大田 (Ota),2014-11-26,20:01～21:00,0.0476,0.0394,0.0428,
大田 (Ota),2014-11-26,19:01～20:00,0.0470,0.0386,0.0425,
大田 (Ota),2014-11-26,18:01～19:00,0.0481,0.0400,0.0443,
大田 (Ota),2014-11-26,17:01～18:00,0.0520,0.0417,0.0471,
大田 (Ota),2014-11-26,16:01～17:00,0.0528,0.0451,0.0493,
大田 (Ota),2014-11-26,15:01～16:00,0.0525,0.0435,0.0476,
大田 (Ota),2014-11-26,14:01～15:00,0.0552,0.0468,0.0514,
大田 (Ota),2014-11-26,13:01～14:00,0.0540,0.0460,0.0499,
大田 (Ota),2014-11-26,12:01～13:00,0.0493,0.0432,0.0458,
大田 (Ota),2014-11-26,11:01～12:00,0.0587,0.0459,0.0520,
大田 (Ota),2014-11-26,10:01～11:00,0.0613,0.0504,0.0571,
大田 (Ota),2014-11-26,09:01～10:00,0.0633,0.0509,0.0570,
大田 (Ota),2014-11-26,08:01～09:00,0.0569,0.0486,0.0525,
大田 (Ota),2014-11-26,07:01～08:00,0.0559,0.0489,0.0526,
大田 (Ota),2014-11-26,06:01～07:00,0.0639,0.0510,0.0584,
大田 (Ota),2014-11-26,05:01～06:00,0.0659,0.0521,0.0595,
大田 (Ota),2014-11-26,04:01～05:00,0.0657,0.0544,0.0599,
大田 (Ota),2014-11-26,03:01～04:00,0.0736,0.0614,0.0683,
大田 (Ota),2014-11-26,02:01～03:00,0.0705,0.0575,0.0643,
大田 (Ota),2014-11-26,01:01～02:00,0.0664,0.0543,0.0611,
大田 (Ota),2014-11-26,00:01～01:00,0.0722,0.0597,0.0647,
大田 (Ota),2014-11-25,23:01～24:00,0.0635,0.0522,0.0576,
大田 (Ota),2014-11-25,22:01～23:00,0.0599,0.0535,0.0563,
大田 (Ota),2014-11-25,21:01～22:00,0.0627,0.0510,0.0573,
大田 (Ota),2014-11-25,20:01～21:00,0.0557,0.0472,0.0508,
大田 (Ota),2014-11-25,19:01～20:00,0.0502,0.0407,0.0462,
大田 (Ota),2014-11-25,18:01～19:00,0.0461,0.0394,0.0429,
大田 (Ota),2014-11-25,17:01～18:00,0.0462,0.0398,0.0424,
大田 (Ota),2014-11-25,16:01～17:00,0.0475,0.0404,0.0432,
大田 (Ota),2014-11-25,15:01～16:00,0.0491,0.0421,0.0452,
大田 (Ota),2014-11-25,14:01～15:00,0.0543,0.0452,0.0494,
大田 (Ota),2014-11-25,13:01～14:00,0.0568,0.0492,0.0523,
大田 (Ota),2014-11-25,12:01～13:00,0.0571,0.0445,0.0481,
大田 (Ota),2014-11-25,11:01～12:00,0.0493,0.0424,0.0459,
大田 (Ota),2014-11-25,10:01～11:00,0.0487,0.0417,0.0448,
大田 (Ota),2014-11-25,09:01～10:00,0.0507,0.0428,0.0466,
大田 (Ota),2014-11-25,08:01～09:00,0.0516,0.0421,0.0463,
大田 (Ota),2014-11-25,07:01～08:00,0.0472,0.0407,0.0435,
大田 (Ota),2014-11-25,06:01～07:00,0.0462,0.0395,0.0432,
大田 (Ota),2014-11-25,05:01～06:00,0.0464,0.0403,0.0428,
大田 (Ota),2014-11-25,04:01～05:00,0.0461,0.0400,0.0428,
大田 (Ota),2014-11-25,03:01～04:00,0.0456,0.0398,0.0426,
大田 (Ota),2014-11-25,02:01～03:00,0.0471,0.0389,0.0430,
大田 (Ota),2014-11-25,01:01～02:00,0.0456,0.0392,0.0425,
大田 (Ota),2014-11-25,00:01～01:00,0.0453,0.0398,0.0425,
大田 (Ota),2014-11-24,23:01～24:00,0.0467,0.0401,0.0426,
大田 (Ota),2014-11-24,22:01～23:00,0.0450,0.0388,0.0424,
大田 (Ota),2014-11-24,21:01～22:00,0.0467,0.0392,0.0427,
大田 (Ota),2014-11-24,20:01～21:00,0.0449,0.0399,0.0424,
大田 (Ota),2014-11-24,19:01～20:00,0.0449,0.0390,0.0423,
大田 (Ota),2014-11-24,18:01～19:00,0.0464,0.0390,0.0427,
大田 (Ota),2014-11-24,17:01～18:00,0.0452,0.0394,0.0426,
大田 (Ota),2014-11-24,16:01～17:00,0.0459,0.0392,0.0422,
大田 (Ota),2014-11-24,15:01～16:00,0.0457,0.0400,0.0426,
大田 (Ota),2014-11-24,14:01～15:00,0.0449,0.0391,0.0420,
大田 (Ota),2014-11-24,13:01～14:00,0.0457,0.0398,0.0427,
大田 (Ota),2014-11-24,12:01～13:00,0.0456,0.0388,0.0425,
大田 (Ota),2014-11-24,11:01～12:00,0.0462,0.0400,0.0425,
大田 (Ota),2014-11-24,10:01～11:00,0.0461,0.0388,0.0422,
大田 (Ota),2014-11-24,09:01～10:00,0.0474,0.0394,0.0425,
大田 (Ota),2014-11-24,08:01～09:00,0.0446,0.0389,0.0422,
大田 (Ota),2014-11-24,07:01～08:00,0.0455,0.0392,0.0423,
大田 (Ota),2014-11-24,06:01～07:00,0.0446,0.0387,0.0417,
大田 (Ota),2014-11-24,05:01～06:00,0.0465,0.0389,0.0423,
大田 (Ota),2014-11-24,04:01～05:00,0.0453,0.0381,0.0419,
大田 (Ota),2014-11-24,03:01～04:00,0.0449,0.0374,0.0418,
大田 (Ota),2014-11-24,02:01～03:00,0.0453,0.0390,0.0419,
大田 (Ota),2014-11-24,01:01～02:00,0.0470,0.0374,0.0419,
大田 (Ota),2014-11-24,00:01～01:00,0.0464,0.0396,0.0419,
